Date and Time,30m Wind Direction,30m Wind Speed,30m Wind Vert,30m Quality,40m Wind Direction,40m Wind Speed,40m Wind Vert,40m Quality,50m Wind Direction,50m Wind Speed,50m Wind Vert,50m Quality,60m Wind Direction,60m Wind Speed,60m Wind Vert,60m Quality,80m Wind Direction,80m Wind Speed,80m Wind Vert,80m Quality,100m Wind Direction,100m Wind Speed,100m Wind Vert,100m Quality,120m Wind Direction,120m Wind Speed,120m Wind Vert,120m Quality,140m Wind Direction,140m Wind Speed,140m Wind Vert,140m Quality,160m Wind Direction,160m Wind Speed,160m Wind Vert,160m Quality,180m Wind Direction,180m Wind Speed,180m Wind Vert,180m Quality,200m Wind Direction,200m Wind Speed,200m Wind Vert,200m Quality,30m Wind Turbulence,40m Wind Turbulence,50m Wind Turbulence,60m Wind Turbulence,80m Wind Turbulence,100m Wind Turbulence,120m Wind Turbulence,140m Wind Turbulence,160m Wind Turbulence,180m Wind Turbulence,200m Wind Turbulence
5/10/2023 12:00 AM,136.3,2.53,0.13,97.0,116.2,2.71,0.16,96.0,95.0,2.93,0.05,95.0,132.8,3.13,0.08,94.0,110.5,2.39,0.55,91.0,112.9,5.96,0.23,89.0,137.8,4.66,0.24,91.0,42.2,3.4,0.61,90.0,115.0,5.37,0.2,86.0,106.6,6.03,1.62,57.0,135.2,7.2,2.57,45.0,0.27,0.42,0.4,0.62,0.94,0.77,0.77,1.67,1.56,1.96,2.11
5/10/2023 12:10 AM,112.4,2.57,-0.01,94.0,125.8,2.1,0.13,96.0,63.5,1.96,-0.09,95.0,76.6,3.29,0.18,93.0,99.7,3.83,-0.26,93.0,95.8,4.85,-0.7,93.0,181.5,3.72,-0.26,89.0,122.7,6.86,-0.07,90.0,147.1,7.65,0.1,91.0,233.8,23.39,0.17,51.0,233.0,13.7,-0.91,47.0,0.71,1.42,2.33,0.93,1.08,0.73,1.37,0.73,0.87,0.56,0.76
5/10/2023 12:20 AM,133.0,2.38,0.07,95.0,147.1,1.54,0.19,93.0,100.7,3.01,0.06,93.0,136.2,3.96,0.09,95.0,69.5,3.35,0.25,93.0,148.1,4.6,0.37,92.0,138.7,2.85,0.36,93.0,130.6,4.72,0.41,95.0,128.4,6.11,0.07,94.0,121.2,5.53,0.17,90.0,106.1,5.61,0.12,61.0,0.22,0.42,0.44,0.4,1.11,0.51,1.02,0.69,0.4,0.56,0.69
5/10/2023 12:30 AM,150.1,1.2,-0.01,95.0,197.5,1.3,0.06,94.0,127.7,1.21,0.01,93.0,90.4,1.8,0.08,93.0,113.4,3.02,0.16,90.0,73.8,3.54,0.15,89.0,114.2,4.02,0.08,92.0,128.6,5.14,0.18,93.0,147.3,3.12,-0.02,94.0,133.2,4.69,-0.07,92.0,118.9,5.46,0.07,91.0,0.58,0.24,0.86,0.58,0.64,1.03,0.33,0.35,0.53,0.23,0.3
5/10/2023 12:40 AM,180.4,1.64,0.02,94.0,160.2,1.16,-0.08,94.0,180.8,0.5,-0.1,94.0,143.4,1.94,0.0,93.0,141.3,2.59,0.04,93.0,136.1,3.6,0.02,93.0,129.6,3.21,-0.08,94.0,124.9,4.53,-0.02,94.0,128.7,5.7,0.11,92.0,131.5,5.23,0.01,89.0,125.6,7.66,0.05,38.0,0.4,0.48,1.2,0.27,0.36,0.22,0.34,0.18,0.22,0.19,0.2
5/10/2023 12:50 AM,159.5,1.96,0.11,95.0,147.6,2.14,0.05,95.0,130.2,1.89,-0.01,95.0,137.5,2.4,0.03,94.0,127.2,2.95,0.04,96.0,137.4,3.72,0.06,96.0,131.2,4.47,-0.03,95.0,128.9,4.64,0.01,93.0,119.3,4.74,0.0,92.0,122.2,5.51,0.05,93.0,127.1,6.75,0.0,94.0,0.33,0.33,0.45,0.17,0.13,0.19,0.15,0.12,0.26,0.13,0.14
5/10/2023 1:00 AM,168.5,2.58,0.09,94.0,169.1,2.09,0.17,95.0,151.7,1.85,0.05,94.0,140.7,1.74,0.02,94.0,144.3,3.08,0.09,91.0,136.0,3.79,0.11,84.0,143.3,3.87,0.1,81.0,143.3,3.2,0.04,60.0,131.8,5.13,0.15,59.0,120.7,5.54,0.05,55.0,136.6,5.81,0.1,55.0,0.31,0.3,0.4,0.41,0.23,0.26,0.22,0.62,0.21,0.19,0.27
5/10/2023 1:10 AM,141.5,2.16,0.03,96.0,154.7,1.68,0.02,94.0,134.3,1.48,-0.03,95.0,158.8,1.78,-0.01,77.0,131.6,3.96,0.1,89.0,140.3,4.05,0.0,73.0,118.9,7.4,0.19,41.0,150.3,6.42,0.02,33.0,168.7,4.51,0.27,22.0,137.9,5.02,0.02,27.0,126.0,7.52,0.49,30.0,0.4,0.4,0.4,0.24,0.34,0.39,0.25,0.33,0.61,0.2,0.22
5/10/2023 1:20 AM,151.6,3.21,0.09,97.0,156.2,2.0,0.06,94.0,161.2,1.34,-0.03,95.0,167.6,1.18,0.08,82.0,93.8,2.08,0.4,86.0,171.7,8.32,1.62,44.0,130.8,3.79,1.4,43.0,124.6,9.08,1.06,34.0,109.1,8.96,1.25,56.0,131.4,8.13,0.61,85.0,136.8,4.58,0.81,63.0,0.26,0.31,0.48,1.08,0.63,0.43,1.33,0.41,0.41,0.4,0.53
5/10/2023 1:30 AM,167.8,2.71,0.23,95.0,180.2,1.65,0.22,92.0,172.6,1.44,0.05,72.0,125.5,1.58,-0.05,67.0,125.2,5.51,0.35,64.0,141.4,7.27,0.13,49.0,136.9,8.26,0.46,41.0,184.7,5.97,0.75,33.0,135.2,7.84,1.07,31.0,172.4,20.25,1.76,19.0,131.6,19.91,2.08,12.0,0.24,0.32,0.28,0.8,0.31,0.38,0.3,0.55,0.54,0.24,0.24
5/10/2023 1:40 AM,155.9,2.34,0.07,95.0,174.9,2.36,0.07,86.0,143.9,2.06,0.05,86.0,141.1,1.67,0.03,92.0,148.7,2.46,0.06,90.0,133.6,4.08,0.02,44.0,140.0,4.71,0.54,29.0,131.0,3.8,0.26,39.0,119.2,4.65,-0.09,26.0,134.3,4.57,0.05,50.0,139.2,5.35,0.06,40.0,0.34,0.27,0.42,0.49,0.5,0.32,0.52,0.78,0.32,0.67,0.35
5/10/2023 1:50 AM,167.7,2.16,0.07,94.0,214.1,3.69,0.24,75.0,186.3,1.99,-0.03,83.0,146.3,1.65,-0.06,92.0,186.0,2.87,0.16,80.0,183.7,3.38,-0.02,45.0,152.0,4.21,0.13,53.0,164.4,3.89,0.06,49.0,163.7,4.07,0.05,46.0,147.8,4.42,-0.07,25.0,204.6,9.66,0.33,35.0,0.31,0.16,0.34,0.45,0.39,0.42,0.39,0.21,0.37,0.23,0.35
5/10/2023 2:00 AM,170.7,1.7,0.14,93.0,203.7,1.99,0.01,78.0,203.7,1.32,-0.11,92.0,169.4,1.9,0.05,94.0,150.9,2.44,-0.08,88.0,157.1,3.17,0.0,75.0,157.5,3.37,0.0,70.0,160.6,3.73,0.0,61.0,150.6,3.91,-0.03,49.0,148.4,4.37,-0.09,45.0,151.0,4.72,-0.12,62.0,0.33,0.2,0.29,0.44,0.17,0.1,0.22,0.13,0.12,0.06,0.14
5/10/2023 2:10 AM,193.1,1.9,0.04,93.0,214.5,4.08,0.21,67.0,177.0,1.86,-0.07,95.0,171.7,1.45,-0.01,94.0,155.7,3.0,0.09,84.0,222.0,4.94,-0.08,28.0,164.3,5.36,-0.19,33.0,190.9,4.37,0.25,32.0,128.1,5.26,-0.45,50.0,75.2,7.95,-0.32,40.0,161.1,6.56,-0.23,19.0,0.27,0.13,0.36,0.48,1.09,0.6,0.41,0.7,0.51,0.34,0.38
5/10/2023 2:20 AM,115.8,1.64,-0.15,92.0,206.0,2.35,0.02,65.0,172.7,1.54,-0.04,96.0,172.0,1.92,0.01,96.0,175.6,2.57,0.08,92.0,177.2,4.53,-0.07,80.0,181.0,3.54,-0.01,47.0,172.7,4.89,0.05,50.0,165.2,4.17,0.1,29.0,176.9,3.9,-0.12,45.0,161.5,3.7,-0.06,48.0,0.39,0.25,0.43,0.35,0.24,0.27,0.18,0.47,0.53,0.18,0.15
5/10/2023 2:30 AM,180.6,2.1,0.02,94.0,203.1,3.41,0.19,92.0,189.9,2.42,0.07,96.0,167.1,2.79,0.13,96.0,176.3,2.89,0.11,92.0,163.0,2.98,0.0,76.0,184.7,3.48,0.23,41.0,172.6,4.0,0.04,35.0,160.6,3.66,-0.02,55.0,158.2,3.98,-0.01,45.0,143.7,5.86,-0.03,48.0,0.36,0.16,0.24,0.29,0.22,0.38,0.15,0.2,0.06,0.07,0.24
5/10/2023 2:40 AM,191.8,1.62,-0.02,93.0,196.7,2.37,0.02,95.0,200.0,2.57,0.07,97.0,174.7,2.28,0.06,95.0,163.1,2.26,0.02,93.0,166.8,3.01,0.05,88.0,154.1,3.12,0.06,74.0,161.5,3.25,0.02,74.0,160.6,3.65,-0.01,88.0,153.5,4.38,-0.1,83.0,152.2,4.72,-0.06,79.0,0.35,0.25,0.22,0.3,0.52,0.38,0.15,0.15,0.19,0.16,0.09
5/10/2023 2:50 AM,192.9,1.98,0.06,95.0,181.1,2.05,0.01,93.0,196.3,2.58,0.16,94.0,176.2,2.19,0.07,94.0,173.7,2.49,0.04,92.0,164.8,2.86,-0.04,91.0,171.2,3.13,0.03,90.0,173.3,3.49,0.03,90.0,169.0,3.69,0.05,91.0,159.4,4.6,0.02,92.0,152.0,5.3,0.02,62.0,0.21,0.29,0.21,0.29,0.32,0.21,0.09,0.08,0.07,0.12,0.15
5/10/2023 3:00 AM,235.3,2.28,-0.02,96.0,202.6,1.31,-0.16,94.0,206.8,2.24,0.1,96.0,200.5,2.33,0.14,94.0,182.7,2.15,0.11,92.0,193.9,2.98,0.14,89.0,184.2,2.72,0.06,88.0,177.0,3.24,0.08,90.0,170.5,3.33,0.08,90.0,173.0,3.84,0.15,91.0,168.0,4.4,0.12,70.0,0.15,0.27,0.22,0.22,0.3,0.23,0.16,0.2,0.16,0.18,0.14
5/10/2023 3:10 AM,271.8,1.42,0.1,94.0,209.3,1.91,0.0,94.0,158.3,1.32,-0.04,82.0,187.3,1.34,0.01,92.0,164.6,2.24,0.08,81.0,4.0,1.65,0.33,47.0,165.4,2.77,0.13,60.0,179.1,2.97,0.11,54.0,162.7,3.4,0.17,61.0,163.3,3.25,0.05,73.0,166.0,4.18,0.07,56.0,0.3,0.28,0.37,0.41,0.31,1.4,0.76,0.26,0.38,0.14,0.27
5/10/2023 3:20 AM,188.8,0.89,-0.08,93.0,206.1,1.46,-0.12,93.0,197.3,0.92,-0.03,94.0,205.5,1.59,0.06,93.0,132.1,1.69,0.03,66.0,139.8,2.03,-0.03,28.0,268.1,2.86,0.58,28.0,169.2,3.44,0.03,46.0,172.1,2.85,0.12,67.0,161.7,3.22,0.08,54.0,163.1,5.1,-0.07,9.0,0.58,0.38,0.46,0.35,0.25,0.71,0.68,0.21,0.08,0.2,0.11
5/10/2023 3:30 AM,265.5,1.36,0.02,94.0,238.7,1.64,-0.02,94.0,62.1,0.67,0.0,72.0,158.5,0.77,0.06,93.0,126.9,1.69,0.03,86.0,130.6,2.23,-0.05,47.0,151.3,1.51,0.0,54.0,137.8,2.59,0.02,53.0,137.3,2.9,-0.01,51.0,150.0,2.76,-0.04,22.0,119.2,3.49,-0.02,5.0,0.44,0.23,0.67,0.42,0.27,0.32,1.15,0.22,0.09,0.58,0.35
5/10/2023 3:40 AM,357.8,1.54,0.12,93.0,240.3,0.84,-0.13,87.0,328.8,0.06,-0.02,75.0,198.6,0.94,0.02,93.0,110.7,2.21,0.2,67.0,21.3,8.23,0.68,22.0,302.3,6.17,-0.08,34.0,108.1,1.69,0.31,68.0,351.2,2.66,0.74,16.0,256.7,21.4,3.42,2.0,263.0,8.94,5.16,7.0,0.29,0.61,11.53,0.55,1.43,1.29,0.73,1.1,1.66,0.52,0.28
5/10/2023 3:50 AM,63.5,3.84,-0.02,94.0,317.2,0.36,-0.08,55.0,193.7,0.09,-0.11,94.0,156.3,0.67,-0.03,40.0,91.4,1.9,0.14,19.0,,,,,296.5,2.33,0.42,2.0,107.2,7.29,0.38,3.0,,,,,,,,,,,,,0.14,1.45,10.22,0.88,0.46,,0.21,0.29,,,
5/10/2023 4:00 AM,29.8,2.91,0.01,96.0,262.0,0.65,-0.06,94.0,173.3,1.75,0.0,93.0,146.1,0.52,0.09,93.0,112.6,1.76,0.07,15.0,96.9,5.56,-0.29,2.0,172.7,3.65,1.14,2.0,135.6,15.3,1.92,2.0,130.4,25.35,2.16,8.0,87.4,23.11,-0.98,1.0,,,,,0.13,0.93,0.29,0.68,0.59,0.29,0.33,0.15,0.23,0.17,
5/10/2023 4:10 AM,23.4,2.69,0.0,94.0,208.9,0.87,0.05,95.0,166.7,0.32,0.06,89.0,131.0,1.22,-0.03,66.0,107.9,4.69,0.7,31.0,258.5,7.09,0.64,13.0,224.9,21.95,0.65,5.0,131.9,2.14,0.5,27.0,143.2,3.73,0.08,63.0,109.1,2.9,0.17,87.0,130.2,4.36,0.03,87.0,0.19,0.47,1.14,0.4,1.44,0.33,0.17,0.56,0.23,0.37,0.27
5/10/2023 4:20 AM,312.4,1.33,0.01,87.0,216.9,0.36,-0.15,89.0,71.6,0.63,-0.03,95.0,146.8,0.81,-0.01,94.0,169.8,1.99,-0.01,19.0,222.4,8.59,-1.69,4.0,,,,,110.5,3.34,0.12,18.0,118.9,3.36,0.09,50.0,105.0,2.83,0.1,56.0,112.7,4.22,-0.02,82.0,0.41,1.11,0.8,0.61,0.85,0.25,,0.91,0.3,0.33,0.2
5/10/2023 4:30 AM,48.9,3.18,-0.18,94.0,220.9,0.43,-0.26,59.0,19.5,0.15,-0.02,95.0,89.7,0.98,0.04,93.0,143.7,3.45,-0.04,62.0,114.7,6.06,0.32,29.0,210.3,8.15,-0.92,8.0,202.3,11.35,2.76,6.0,187.3,5.26,1.87,5.0,17.9,18.28,1.81,8.0,350.5,9.04,4.21,7.0,0.19,1.12,2.08,0.66,0.4,0.48,0.45,0.72,0.55,0.97,0.52
5/10/2023 4:40 AM,65.6,2.89,-0.05,90.0,357.9,0.76,-0.13,94.0,157.9,0.49,-0.05,94.0,87.5,0.91,0.01,87.0,122.6,1.92,0.02,63.0,116.5,6.97,0.24,5.0,291.8,1.25,-0.62,1.0,,,,,326.8,0.99,-0.56,4.0,126.0,3.38,-0.05,17.0,127.1,3.64,-0.05,15.0,0.25,0.72,0.86,0.47,0.58,0.17,0.36,,0.31,0.15,0.45
5/10/2023 4:50 AM,68.1,4.65,-0.07,65.0,131.0,0.36,-0.14,95.0,190.3,0.48,-0.14,99.0,102.2,0.34,-0.05,92.0,57.2,0.8,-0.47,22.0,132.1,7.2,-0.08,29.0,80.4,8.14,-0.2,23.0,147.7,3.89,-0.33,22.0,144.4,4.97,0.01,16.0,114.3,9.36,-1.13,7.0,103.5,5.09,-0.12,29.0,0.14,1.43,0.9,1.49,0.45,0.32,0.26,0.36,0.66,0.23,0.35
5/10/2023 5:00 AM,59.1,3.9,-0.03,72.0,25.5,1.01,-0.03,96.0,103.3,0.62,-0.09,95.0,103.8,1.22,-0.06,92.0,49.9,3.02,0.25,54.0,14.4,14.09,1.06,19.0,175.9,11.73,-1.25,9.0,226.6,4.78,0.48,7.0,237.9,14.49,-3.05,5.0,147.5,10.0,1.37,9.0,137.0,4.13,-0.01,16.0,0.15,0.46,0.7,0.27,0.36,0.44,0.73,0.43,0.4,0.52,2.43
5/10/2023 5:10 AM,53.6,3.22,0.05,82.0,178.8,0.67,-0.05,93.0,132.1,0.97,0.0,95.0,112.7,1.55,-0.02,94.0,92.2,1.84,0.06,31.0,168.0,5.64,0.1,17.0,153.4,9.21,-0.32,16.0,92.0,3.49,0.03,21.0,,,,,145.5,7.37,0.09,17.0,148.3,6.01,0.09,7.0,0.19,0.94,0.45,0.29,0.45,1.02,0.18,0.38,,1.18,0.24
5/10/2023 5:20 AM,59.9,3.17,0.0,93.0,174.9,0.2,0.01,94.0,141.0,0.92,0.02,95.0,111.9,1.43,0.0,94.0,256.8,0.95,0.34,67.0,179.5,11.28,-0.6,22.0,137.2,0.4,0.85,28.0,62.1,4.0,0.19,45.0,142.7,4.51,0.29,30.0,20.3,2.61,0.65,29.0,59.8,11.02,0.3,14.0,0.18,2.5,0.71,0.36,8.37,0.46,0.81,0.32,0.4,0.39,0.22
5/10/2023 5:30 AM,66.0,2.78,0.0,95.0,103.0,1.1,-0.15,89.0,104.1,1.58,-0.01,94.0,114.3,1.84,0.05,95.0,102.8,2.0,0.02,90.0,89.9,4.2,-0.14,44.0,104.4,3.03,0.03,37.0,102.5,2.96,0.02,10.0,337.7,3.55,-0.95,2.0,42.0,15.7,0.23,1.0,,,,,0.22,0.59,0.24,0.2,0.32,0.2,0.6,0.21,1.34,0.15,
5/10/2023 5:40 AM,79.4,1.7,0.0,96.0,143.0,1.05,-0.11,94.0,41.5,0.2,-0.02,97.0,113.4,1.55,0.01,93.0,124.0,3.41,0.31,70.0,21.3,11.06,1.46,6.0,98.4,2.9,0.34,23.0,90.7,7.59,0.44,25.0,176.8,8.51,-0.07,19.0,99.4,6.86,-1.8,10.0,74.0,42.54,-0.66,1.0,0.32,0.47,2.22,0.25,0.46,0.36,0.31,1.35,0.28,1.08,0.11
5/10/2023 5:50 AM,27.1,2.01,-0.14,95.0,81.0,1.28,-0.1,94.0,109.9,1.16,0.06,85.0,136.4,0.94,0.0,93.0,111.4,1.39,0.0,76.0,77.4,6.1,-1.46,21.0,358.7,9.03,0.54,14.0,150.7,7.07,-1.25,12.0,1.6,12.65,-0.08,15.0,143.0,17.02,-0.65,9.0,105.4,27.61,-0.19,12.0,0.22,0.37,0.47,0.56,1.63,2.93,0.54,0.58,0.8,0.21,0.3
5/10/2023 6:00 AM,355.2,0.98,-0.13,95.0,170.8,0.94,-0.02,85.0,228.4,2.11,0.02,92.0,228.9,0.23,0.05,78.0,91.6,1.2,0.14,9.0,13.2,10.73,0.75,6.0,75.1,17.8,-1.25,2.0,348.0,32.43,-0.45,4.0,217.8,31.15,3.4,2.0,26.2,11.95,0.51,13.0,94.4,22.16,1.65,2.0,0.42,0.57,0.2,1.2,0.58,1.38,0.14,0.5,0.1,0.31,0.28
5/10/2023 6:10 AM,69.9,1.24,-0.14,96.0,288.8,0.22,-0.15,55.0,132.2,0.23,-0.15,94.0,118.9,1.37,0.03,92.0,117.1,1.76,0.06,76.0,,,,,,,,,,,,,,,,,96.4,2.35,0.02,14.0,78.9,1.86,0.07,30.0,0.44,3.07,2.13,0.27,0.22,,,,,0.08,0.72
5/10/2023 6:20 AM,64.3,3.31,-0.15,95.0,205.2,0.62,-0.15,93.0,104.5,0.48,-0.01,96.0,113.5,1.49,0.0,94.0,105.0,1.77,0.04,68.0,222.7,5.91,0.62,8.0,,,,,,,,,,,,,92.9,1.55,0.1,13.0,137.4,2.66,0.11,45.0,0.18,0.96,1.06,0.24,0.25,0.5,,,,1.18,0.34
5/10/2023 6:30 AM,97.0,2.72,-0.12,97.0,198.9,1.44,-0.13,85.0,105.0,0.6,0.02,95.0,113.5,1.74,0.12,95.0,107.3,5.0,0.38,40.0,29.0,10.9,3.42,4.0,115.7,11.68,0.87,14.0,55.9,20.29,0.81,4.0,254.9,5.58,0.01,1.0,291.3,7.42,-1.77,2.0,155.1,12.78,2.28,11.0,0.23,0.36,0.74,0.44,0.82,0.44,0.32,0.27,0.35,0.41,0.45
5/10/2023 6:40 AM,69.6,1.87,-0.26,95.0,177.3,2.56,-0.05,95.0,202.4,1.5,-0.03,94.0,170.0,0.53,-0.1,70.0,213.4,0.99,0.06,33.0,86.8,6.01,-0.23,1.0,117.4,1.62,-0.08,11.0,166.7,2.54,0.19,53.0,158.3,7.2,-0.36,4.0,,,,,107.1,4.05,-0.25,25.0,0.38,0.21,0.47,0.53,0.8,0.35,0.54,0.73,0.12,,0.42
5/10/2023 6:50 AM,49.7,3.23,-0.36,96.0,142.1,0.96,-0.09,96.0,159.4,1.8,-0.17,94.0,108.1,1.56,0.06,57.0,25.3,2.68,0.11,38.0,,,,,116.7,3.18,0.2,13.0,130.9,2.34,0.06,42.0,126.7,2.77,-0.04,27.0,,,,,,,,,0.22,0.71,0.32,0.3,0.55,,0.57,0.29,0.14,,
5/10/2023 7:00 AM,68.9,3.37,-0.13,95.0,161.9,2.15,0.0,98.0,175.0,0.71,-0.11,89.0,148.6,1.03,-0.04,69.0,147.7,0.57,-0.17,39.0,,,,,123.9,2.22,-0.01,76.0,130.8,2.32,-0.05,91.0,218.2,0.94,-0.36,22.0,141.1,3.2,-0.11,44.0,155.1,3.93,-0.01,71.0,0.21,0.24,0.61,0.26,0.46,,0.13,0.2,1.39,0.45,0.07
5/10/2023 7:10 AM,56.4,2.09,-0.1,96.0,121.3,1.14,-0.13,91.0,168.2,0.95,-0.07,73.0,100.4,1.0,-0.04,76.0,127.6,1.67,0.03,39.0,135.6,1.76,-0.09,57.0,132.5,2.43,-0.03,91.0,149.5,2.59,0.02,92.0,150.5,2.69,-0.07,92.0,157.5,3.64,0.0,93.0,158.6,4.12,-0.02,91.0,0.28,0.42,0.45,0.43,0.35,0.24,0.09,0.11,0.21,0.08,0.07
5/10/2023 7:20 AM,35.1,2.84,-0.16,95.0,114.7,1.01,-0.13,84.0,178.7,0.81,-0.15,89.0,150.4,1.15,0.01,91.0,182.3,1.18,-0.17,69.0,118.9,4.57,0.42,43.0,156.4,3.16,0.02,77.0,170.7,2.91,0.06,91.0,162.8,3.01,0.04,92.0,170.5,3.44,0.04,92.0,171.5,4.89,0.0,89.0,0.19,0.52,0.57,0.51,0.96,0.59,0.25,0.22,0.54,0.26,0.08
5/10/2023 7:30 AM,50.5,1.49,-0.2,78.0,29.1,1.61,-0.19,76.0,124.2,1.14,0.05,62.0,130.1,1.19,0.01,90.0,15.5,1.73,0.17,28.0,179.3,1.95,0.03,77.0,177.1,2.43,0.05,93.0,175.1,2.98,0.06,95.0,177.4,3.63,0.06,92.0,176.4,3.81,0.04,88.0,165.4,5.39,0.15,54.0,0.24,0.26,0.62,0.69,1.44,0.35,0.12,0.13,0.06,0.14,0.34
5/10/2023 7:40 AM,24.0,0.98,0.18,94.0,153.2,1.07,0.07,71.0,186.1,1.73,-0.11,93.0,212.2,0.38,-0.2,93.0,162.8,0.98,-0.1,61.0,191.2,1.28,-0.22,62.0,196.8,2.32,-0.04,57.0,173.2,2.97,0.06,94.0,181.3,3.72,0.01,96.0,182.1,3.86,-0.01,87.0,166.8,6.3,0.26,4.0,0.48,0.51,0.37,1.32,0.4,0.36,0.39,0.08,0.16,0.12,0.12
5/10/2023 7:50 AM,49.9,3.77,-0.14,83.0,133.9,0.95,-0.07,93.0,59.5,0.69,-0.12,95.0,131.2,0.82,-0.08,93.0,128.7,1.55,-0.01,85.0,163.5,2.32,0.05,91.0,164.2,2.59,0.04,94.0,170.1,3.18,0.02,96.0,175.8,3.86,0.04,96.0,170.3,4.34,0.02,95.0,175.3,4.84,0.04,78.0,0.14,0.56,0.52,0.47,0.57,0.17,0.11,0.1,0.08,0.07,0.12
5/10/2023 8:00 AM,42.5,1.44,-0.08,78.0,151.4,1.16,-0.04,95.0,189.6,1.04,-0.1,96.0,148.0,0.9,0.09,93.0,159.5,1.73,0.0,88.0,166.8,2.55,0.08,91.0,172.6,2.21,0.05,94.0,178.9,3.13,0.1,95.0,179.3,3.11,0.05,95.0,173.2,4.01,0.05,95.0,173.9,4.27,0.04,91.0,0.36,0.55,0.51,0.71,0.32,0.2,0.26,0.1,0.09,0.06,0.12
5/10/2023 8:10 AM,183.1,0.23,0.04,66.0,195.8,3.08,-0.27,47.0,229.3,0.34,-0.09,65.0,39.8,0.82,0.05,93.0,103.1,2.28,-0.09,55.0,169.6,1.95,0.07,74.0,158.6,2.12,0.09,93.0,170.9,2.74,0.06,93.0,170.5,2.98,0.12,92.0,177.8,3.24,0.14,92.0,171.9,4.33,0.22,85.0,2.1,0.22,1.79,0.4,0.41,0.23,0.28,0.25,0.11,0.16,0.27
5/10/2023 8:20 AM,28.5,2.74,-0.15,94.0,81.2,1.04,-0.25,18.0,150.3,0.79,-0.04,93.0,70.5,0.6,0.1,93.0,154.7,1.16,0.04,87.0,157.9,2.07,0.04,80.0,156.6,1.66,-0.01,88.0,168.5,2.36,0.02,90.0,178.3,2.41,-0.02,92.0,176.2,3.18,0.03,92.0,182.7,4.03,0.06,90.0,0.18,0.32,0.5,0.65,0.29,0.16,0.24,0.14,0.12,0.1,0.14
5/10/2023 8:30 AM,23.1,1.91,-0.03,58.0,347.7,0.91,-0.06,13.0,311.4,1.33,-0.01,29.0,144.5,1.22,0.01,93.0,165.9,1.76,0.0,94.0,172.5,2.16,0.0,95.0,182.3,2.55,-0.01,94.0,176.9,3.22,0.03,94.0,179.6,3.56,-0.01,96.0,181.5,4.45,-0.04,94.0,180.1,4.42,-0.05,29.0,0.24,0.52,0.27,0.34,0.17,0.13,0.3,0.11,0.1,0.14,0.14
5/10/2023 8:40 AM,25.3,2.73,0.13,76.0,130.1,1.06,-0.25,43.0,148.1,1.99,0.05,94.0,177.8,1.88,0.04,96.0,180.5,2.24,-0.02,96.0,181.8,2.75,0.03,97.0,190.6,2.7,0.02,97.0,178.7,3.43,0.06,97.0,181.3,4.05,-0.02,98.0,180.3,4.69,0.0,94.0,193.9,5.39,-0.21,32.0,0.17,0.5,0.41,0.21,0.18,0.14,0.15,0.18,0.08,0.15,0.22
5/10/2023 8:50 AM,27.0,1.02,0.01,95.0,155.5,1.11,0.06,93.0,161.0,2.03,0.11,96.0,174.0,1.95,0.08,95.0,174.7,2.03,0.1,97.0,180.1,2.44,0.14,98.0,182.2,2.82,0.13,98.0,182.8,3.49,0.13,99.0,180.5,4.04,0.12,99.0,181.2,4.44,0.12,98.0,192.7,5.32,0.1,65.0,0.44,0.5,0.23,0.3,0.22,0.23,0.13,0.09,0.1,0.06,0.25
5/10/2023 9:00 AM,45.4,1.49,0.01,94.0,166.8,0.96,-0.05,94.0,167.2,1.55,0.06,95.0,139.6,2.38,0.14,95.0,173.4,1.5,0.08,95.0,182.0,1.42,0.11,96.0,193.4,2.11,0.1,96.0,188.0,3.17,0.1,96.0,182.2,3.4,0.01,97.0,184.4,3.42,0.02,96.0,180.6,5.04,0.06,90.0,0.37,0.69,0.41,0.39,0.33,0.48,0.31,0.26,0.21,0.43,0.32
5/10/2023 9:10 AM,92.5,2.22,-0.25,94.0,146.7,1.21,-0.01,93.0,157.6,1.85,0.11,93.0,93.7,0.74,-0.09,93.0,191.0,3.61,0.21,94.0,180.4,2.72,0.03,95.0,189.5,3.99,0.08,95.0,170.4,3.6,0.07,91.0,199.4,4.29,0.04,93.0,183.9,4.57,0.22,92.0,155.5,7.23,0.03,84.0,0.37,0.94,0.96,2.52,0.5,0.53,0.48,0.72,0.67,0.54,0.5
5/10/2023 9:20 AM,47.5,0.44,-0.03,93.0,33.5,1.58,-0.19,95.0,57.7,2.03,-0.13,93.0,130.6,1.05,-0.22,92.0,285.6,1.9,0.02,92.0,270.0,4.28,-0.32,93.0,208.7,2.79,-0.29,92.0,228.0,2.53,0.15,91.0,152.3,5.3,0.27,89.0,139.3,1.85,0.62,90.0,120.1,3.87,1.09,89.0,2.31,2.77,1.83,1.09,1.94,1.09,1.62,1.44,0.94,4.97,1.9
5/10/2023 9:30 AM,55.0,1.6,-0.08,93.0,142.0,3.98,-0.73,91.0,61.9,4.92,-1.11,80.0,151.4,2.1,-0.7,82.0,136.0,2.49,-0.5,87.0,32.1,4.04,-1.25,71.0,10.4,3.24,-0.67,52.0,269.0,8.03,-0.86,50.0,253.3,0.78,-0.79,80.0,206.8,6.45,-0.59,86.0,132.8,5.3,-1.04,89.0,1.46,0.89,0.93,2.32,4.5,1.22,1.14,0.65,2.64,1.2,1.05
5/10/2023 9:40 AM,315.2,2.12,-0.06,91.0,137.8,0.77,0.01,92.0,5.4,2.54,0.14,89.0,34.9,1.38,0.48,89.0,251.4,4.72,-0.8,74.0,148.5,8.11,-0.3,79.0,185.9,11.08,-0.43,63.0,44.1,3.48,-0.25,76.0,102.2,6.37,-1.37,84.0,192.3,6.56,-0.53,83.0,204.7,5.74,-0.08,88.0,1.14,4.57,1.25,8.6,1.2,0.86,0.91,1.11,0.75,0.9,0.83
5/10/2023 9:50 AM,349.0,1.01,-0.14,92.0,316.3,0.3,0.04,92.0,183.4,5.35,-0.01,88.0,46.4,5.36,-0.29,86.0,113.4,11.45,0.92,78.0,357.7,11.53,0.18,65.0,7.5,0.56,1.09,73.0,219.6,7.57,0.32,70.0,217.7,14.51,0.89,69.0,186.5,10.12,-0.11,74.0,137.6,11.41,0.27,74.0,1.0,7.54,0.67,2.17,0.57,0.54,1.21,1.53,0.63,0.61,0.57
5/10/2023 10:00 AM,310.9,2.55,-0.34,93.0,136.5,1.12,0.08,84.0,101.0,4.41,0.31,91.0,61.1,5.43,0.44,69.0,310.4,6.59,0.27,55.0,84.7,6.57,0.02,58.0,30.0,0.41,0.36,55.0,102.2,3.51,1.58,63.0,166.2,4.33,1.15,56.0,126.6,5.45,-0.49,51.0,132.2,11.09,0.0,44.0,1.3,2.69,0.78,1.23,1.62,3.11,1.64,1.16,0.79,0.51,0.39
5/10/2023 10:10 AM,70.3,1.03,-0.17,71.0,183.3,1.74,0.07,95.0,142.4,5.66,0.5,90.0,172.4,13.75,0.06,86.0,201.7,9.3,-0.41,56.0,199.0,13.41,-1.35,47.0,265.7,6.14,-0.79,46.0,245.1,16.26,0.46,71.0,51.0,5.88,-1.43,55.0,245.4,7.06,0.05,72.0,196.8,14.57,0.13,63.0,1.18,0.96,0.85,0.54,0.66,0.65,1.14,0.64,0.96,1.45,0.77
5/10/2023 10:20 AM,31.1,1.39,0.1,93.0,122.6,0.88,-0.01,91.0,101.5,4.04,-0.13,66.0,88.3,7.13,-0.24,45.0,195.4,3.94,0.0,55.0,158.8,4.57,-1.24,60.0,197.6,10.5,1.38,48.0,208.2,5.02,0.42,44.0,269.1,18.53,-0.09,59.0,283.6,3.78,1.52,56.0,163.6,3.97,0.03,41.0,1.01,1.01,1.62,1.03,1.65,1.74,1.02,1.43,0.29,4.9,0.68
5/10/2023 10:30 AM,36.8,1.49,0.08,96.0,219.2,3.34,0.08,83.0,187.1,3.81,0.61,84.0,152.3,4.26,0.71,68.0,60.0,7.73,1.08,61.0,219.5,2.47,-0.01,63.0,229.1,8.73,0.27,72.0,198.6,6.99,-0.03,78.0,189.2,11.5,0.1,86.0,40.9,4.45,0.63,61.0,193.2,6.86,1.42,44.0,1.96,1.24,1.4,2.11,1.46,1.17,0.85,1.45,0.65,1.51,0.66
5/10/2023 10:40 AM,329.9,0.71,0.05,97.0,82.8,1.21,-0.08,93.0,53.0,1.54,-0.1,88.0,289.4,6.43,0.04,82.0,94.7,6.45,-1.64,72.0,136.5,5.03,-0.23,71.0,97.8,4.89,-1.18,55.0,168.3,11.29,0.02,78.0,336.5,5.85,-1.61,60.0,153.0,5.55,-1.27,65.0,167.7,8.77,0.46,62.0,1.55,1.02,2.42,0.81,1.18,1.22,1.11,0.75,3.32,1.27,1.23
5/10/2023 10:50 AM,332.5,3.97,-0.37,94.0,45.5,1.48,-0.07,94.0,205.7,1.01,-0.15,91.0,353.3,6.6,0.01,78.0,271.0,9.19,0.16,74.0,210.6,3.75,0.1,81.0,320.3,8.28,-0.81,79.0,251.2,5.05,0.24,68.0,207.5,4.9,1.16,70.0,275.1,4.39,0.58,75.0,315.5,4.95,-0.04,60.0,0.38,7.18,3.05,3.28,0.79,1.06,1.18,4.32,2.47,2.17,0.95
5/10/2023 11:00 AM,313.9,1.02,0.01,96.0,15.5,1.35,0.13,92.0,316.1,0.97,0.42,91.0,226.2,0.15,0.25,82.0,103.3,11.39,0.89,72.0,166.9,15.08,0.8,78.0,235.2,5.7,0.64,69.0,103.9,8.88,1.64,74.0,189.2,3.84,-0.47,76.0,79.3,4.29,0.41,85.0,83.1,11.52,-0.52,77.0,1.13,1.85,2.58,1.66,0.5,0.53,1.07,0.98,1.17,3.03,0.91
5/10/2023 11:10 AM,48.1,1.19,-0.05,57.0,249.0,6.38,0.19,47.0,203.6,2.34,-0.56,89.0,279.0,2.85,-0.57,75.0,262.1,2.12,-1.32,61.0,90.8,2.12,-0.58,47.0,88.7,5.11,-0.54,44.0,64.5,5.31,-0.05,42.0,125.9,5.19,-0.15,60.0,72.0,1.44,1.29,66.0,151.7,4.46,-0.34,66.0,1.4,0.72,2.96,1.35,0.97,0.97,1.18,3.35,0.92,1.48,1.07
5/10/2023 11:20 AM,108.1,0.61,0.16,93.0,166.3,1.92,0.32,95.0,175.8,2.99,0.37,94.0,264.5,1.17,0.54,91.0,358.6,3.18,0.15,69.0,310.8,4.02,0.27,69.0,42.1,4.28,0.12,68.0,156.6,6.91,0.83,63.0,313.2,5.91,-0.37,66.0,245.7,3.58,0.27,65.0,258.5,11.13,-1.12,71.0,1.83,0.94,1.11,1.13,1.79,1.23,3.24,0.57,0.82,1.09,0.48
5/10/2023 11:30 AM,175.8,1.15,0.03,94.0,275.7,0.32,-0.05,96.0,161.7,1.29,0.01,95.0,54.5,0.73,0.06,95.0,128.2,3.12,0.52,92.0,192.4,1.04,0.26,91.0,64.2,1.71,0.08,89.0,128.0,2.98,0.33,87.0,110.5,8.14,-0.18,77.0,125.9,8.02,-0.1,87.0,99.4,6.24,0.96,84.0,0.65,6.0,3.94,2.46,0.98,2.44,2.07,1.35,0.81,1.44,2.31
5/10/2023 11:40 AM,162.0,0.73,0.17,96.0,175.5,1.08,0.16,96.0,152.0,1.57,0.13,95.0,188.7,1.87,0.11,95.0,153.3,1.45,0.15,92.0,113.6,2.06,0.06,91.0,201.9,4.71,-0.13,88.0,250.0,1.96,-0.3,68.0,222.4,3.79,0.68,53.0,217.4,4.94,0.1,42.0,282.8,8.23,-2.14,57.0,0.78,1.13,0.94,0.74,3.64,2.42,3.81,2.42,2.34,3.11,2.21
5/10/2023 11:50 AM,304.3,2.23,0.13,97.0,318.4,2.19,0.12,98.0,300.4,2.21,0.11,97.0,290.5,1.65,0.16,97.0,298.9,0.97,0.24,97.0,274.6,1.66,0.23,96.0,224.8,1.45,0.39,97.0,199.3,0.98,0.1,96.0,169.3,2.88,0.41,95.0,162.3,3.45,0.24,92.0,204.7,2.62,0.45,88.0,0.22,0.23,0.2,0.97,2.25,0.81,1.34,3.94,0.93,0.64,1.19
5/10/2023 12:00 PM,308.1,1.9,-0.03,97.0,317.6,1.85,-0.06,97.0,309.7,1.81,-0.02,97.0,298.7,1.7,0.05,94.0,243.8,1.2,0.04,94.0,181.2,1.01,0.11,93.0,211.6,1.34,-0.02,74.0,173.1,3.92,0.21,55.0,140.2,5.85,0.69,64.0,190.4,1.18,0.7,57.0,221.1,8.77,0.23,46.0,0.26,0.24,0.32,0.51,0.77,0.85,1.27,0.78,1.28,1.27,0.9
5/10/2023 12:10 PM,307.9,1.67,0.03,97.0,266.2,1.38,-0.03,97.0,260.1,1.26,0.04,96.0,257.0,1.29,0.0,97.0,203.4,2.53,-0.1,94.0,336.3,0.93,0.03,93.0,243.7,1.1,-0.31,91.0,84.0,4.18,0.38,80.0,191.6,2.9,1.01,80.0,63.4,3.06,0.28,66.0,187.6,3.44,0.55,80.0,0.31,0.53,0.63,0.68,0.92,1.75,2.38,1.12,1.16,2.55,1.42
5/10/2023 12:20 PM,310.8,1.18,0.09,97.0,283.3,1.28,0.06,97.0,298.7,1.27,0.08,97.0,299.0,1.29,0.02,97.0,253.9,0.95,0.04,96.0,124.7,0.9,-0.32,95.0,80.9,3.31,-0.32,92.0,190.0,2.22,0.12,91.0,176.2,3.25,0.1,91.0,145.5,3.36,0.08,90.0,139.2,1.17,-0.31,73.0,0.5,0.51,0.41,0.85,6.43,2.44,0.74,1.03,0.75,1.49,2.96
5/10/2023 12:30 PM,290.0,1.44,0.25,98.0,282.9,0.94,0.27,98.0,306.4,0.88,0.22,98.0,271.5,0.97,0.23,98.0,286.7,1.19,0.3,97.0,194.2,1.91,0.23,95.0,166.2,0.87,-0.19,94.0,196.2,1.7,-0.11,94.0,145.9,0.4,-0.11,93.0,274.8,1.76,-0.34,92.0,162.3,0.75,-0.35,90.0,0.33,0.55,0.78,0.71,0.61,0.85,1.55,1.45,1.68,1.52,2.38
5/10/2023 12:40 PM,244.8,0.67,-0.18,96.0,186.9,0.55,-0.29,98.0,105.8,0.82,-0.19,97.0,188.3,1.5,-0.18,97.0,293.0,0.66,-0.3,97.0,191.7,0.36,-0.17,96.0,296.4,0.98,-0.13,95.0,174.2,2.77,-0.02,95.0,125.4,1.86,-0.17,94.0,112.1,3.06,0.15,93.0,185.4,1.96,0.08,92.0,0.82,2.19,1.39,1.24,4.04,3.37,6.64,1.01,1.32,1.15,2.31